Year,Month,Day,Hour,Minute,Value (Times are PST for temperature in C)
2014,10,05,00,00,14.90
2014,10,05,00,01,14.90
2014,10,05,00,02,14.80
2014,10,05,00,03,14.80
2014,10,05,00,04,14.80
2014,10,05,00,05,14.80
2014,10,05,00,06,14.80
2014,10,05,00,07,14.80
2014,10,05,00,08,14.80
2014,10,05,00,09,14.80
2014,10,05,00,10,14.80
2014,10,05,00,11,14.80
2014,10,05,00,12,14.80
2014,10,05,00,13,14.80
2014,10,05,00,14,14.80
2014,10,05,00,15,14.80
2014,10,05,00,16,14.80
2014,10,05,00,17,14.80
2014,10,05,00,18,14.80
2014,10,05,00,19,14.90
2014,10,05,00,20,14.90
2014,10,05,00,21,14.90
2014,10,05,00,22,14.90
2014,10,05,00,23,14.90
2014,10,05,00,24,14.90
2014,10,05,00,25,14.90
2014,10,05,00,26,14.90
2014,10,05,00,27,14.90
2014,10,05,00,28,14.90
2014,10,05,00,29,14.90
2014,10,05,00,30,14.90
2014,10,05,00,31,14.90
2014,10,05,00,32,14.90
2014,10,05,00,33,14.90
2014,10,05,00,34,14.90
2014,10,05,00,35,14.90
2014,10,05,00,36,14.80
2014,10,05,00,37,14.80
2014,10,05,00,38,14.80
2014,10,05,00,39,14.80
2014,10,05,00,40,14.80
2014,10,05,00,41,14.80
2014,10,05,00,42,14.80
2014,10,05,00,43,14.80
2014,10,05,00,44,14.80
2014,10,05,00,45,14.80
2014,10,05,00,46,14.80
2014,10,05,00,47,14.80
2014,10,05,00,48,14.80
2014,10,05,00,49,14.80
2014,10,05,00,50,14.80
2014,10,05,00,51,14.80
2014,10,05,00,52,14.80
2014,10,05,00,53,14.80
2014,10,05,00,54,14.80
2014,10,05,00,55,14.80
2014,10,05,00,56,14.80
2014,10,05,00,57,14.80
2014,10,05,00,58,14.80
2014,10,05,00,59,14.80
2014,10,05,01,00,14.80
2014,10,05,01,01,14.80
2014,10,05,01,02,14.80
2014,10,05,01,03,14.80
2014,10,05,01,04,14.80
2014,10,05,01,05,14.90
2014,10,05,01,06,14.90
2014,10,05,01,07,14.90
2014,10,05,01,08,14.90
2014,10,05,01,09,14.90
2014,10,05,01,10,14.90
2014,10,05,01,11,14.90
2014,10,05,01,12,14.90
2014,10,05,01,13,14.90
2014,10,05,01,14,14.90
2014,10,05,01,15,14.90
2014,10,05,01,16,15.00
2014,10,05,01,17,15.00
2014,10,05,01,18,15.00
2014,10,05,01,19,15.00
2014,10,05,01,20,15.00
2014,10,05,01,21,15.00
2014,10,05,01,22,15.00
2014,10,05,01,23,15.00
2014,10,05,01,24,15.00
2014,10,05,01,25,15.00
2014,10,05,01,26,15.10
2014,10,05,01,27,15.10
2014,10,05,01,28,15.10
2014,10,05,01,29,15.10
2014,10,05,01,30,15.10
2014,10,05,01,31,15.10
2014,10,05,01,32,15.10
2014,10,05,01,33,15.10
2014,10,05,01,34,15.10
2014,10,05,01,35,15.10
2014,10,05,01,36,15.10
2014,10,05,01,37,15.10
2014,10,05,01,38,15.10
2014,10,05,01,39,15.10
2014,10,05,01,40,15.20
2014,10,05,01,41,15.20
2014,10,05,01,42,15.20
2014,10,05,01,43,15.20
2014,10,05,01,44,15.20
2014,10,05,01,45,15.20
2014,10,05,01,46,15.20
2014,10,05,01,47,15.20
2014,10,05,01,48,15.20
2014,10,05,01,49,15.20
2014,10,05,01,50,15.20
2014,10,05,01,51,15.20
2014,10,05,01,52,15.20
2014,10,05,01,53,15.20
2014,10,05,01,54,15.20
2014,10,05,01,55,15.20
2014,10,05,01,56,15.20
2014,10,05,01,57,15.20
2014,10,05,01,58,15.20
2014,10,05,01,59,15.20
2014,10,05,02,00,15.20
2014,10,05,02,01,15.20
2014,10,05,02,02,15.20
2014,10,05,02,03,15.20
2014,10,05,02,04,15.20
2014,10,05,02,05,15.20
2014,10,05,02,06,15.20
2014,10,05,02,07,15.20
2014,10,05,02,08,15.20
2014,10,05,02,09,15.20
2014,10,05,02,10,15.20
2014,10,05,02,11,15.20
2014,10,05,02,12,15.20
2014,10,05,02,13,15.30
2014,10,05,02,14,15.30
2014,10,05,02,15,15.30
2014,10,05,02,16,15.30
2014,10,05,02,17,15.30
2014,10,05,02,18,15.30
2014,10,05,02,19,15.30
2014,10,05,02,20,15.30
2014,10,05,02,21,15.30
2014,10,05,02,22,15.30
2014,10,05,02,23,15.30
2014,10,05,02,24,15.30
2014,10,05,02,25,15.30
2014,10,05,02,26,15.40
2014,10,05,02,27,15.40
2014,10,05,02,28,15.40
2014,10,05,02,29,15.40
2014,10,05,02,30,15.40
2014,10,05,02,31,15.40
2014,10,05,02,32,15.50
2014,10,05,02,33,15.50
2014,10,05,02,34,15.50
2014,10,05,02,35,15.50
2014,10,05,02,36,15.60
2014,10,05,02,37,15.60
2014,10,05,02,38,15.60
2014,10,05,02,39,15.60
2014,10,05,02,40,15.60
2014,10,05,02,41,15.60
2014,10,05,02,42,15.60
2014,10,05,02,43,15.60
2014,10,05,02,44,15.60
2014,10,05,02,45,15.60
2014,10,05,02,46,15.60
2014,10,05,02,47,15.60
2014,10,05,02,48,15.60
2014,10,05,02,49,15.60
2014,10,05,02,50,15.60
2014,10,05,02,51,15.60
2014,10,05,02,52,15.60
2014,10,05,02,53,15.70
2014,10,05,02,54,15.70
2014,10,05,02,55,15.70
2014,10,05,02,56,15.70
2014,10,05,02,57,15.70
2014,10,05,02,58,15.70
2014,10,05,02,59,15.70
2014,10,05,03,00,15.70
2014,10,05,03,01,15.70
2014,10,05,03,02,15.70
2014,10,05,03,03,15.70
2014,10,05,03,04,15.70
2014,10,05,03,05,15.70
2014,10,05,03,06,15.70
2014,10,05,03,07,15.70
2014,10,05,03,08,15.70
2014,10,05,03,09,15.70
2014,10,05,03,10,15.70
2014,10,05,03,11,15.70
2014,10,05,03,12,15.70
2014,10,05,03,13,15.70
2014,10,05,03,14,15.70
2014,10,05,03,15,15.70
2014,10,05,03,16,15.70
2014,10,05,03,17,15.70
2014,10,05,03,18,15.70
2014,10,05,03,19,15.70
2014,10,05,03,20,15.80
2014,10,05,03,21,15.80
2014,10,05,03,22,15.80
2014,10,05,03,23,15.80
2014,10,05,03,24,15.80
2014,10,05,03,25,15.80
2014,10,05,03,26,15.80
2014,10,05,03,27,15.80
2014,10,05,03,28,15.80
2014,10,05,03,29,15.80
2014,10,05,03,30,15.80
2014,10,05,03,31,15.80
2014,10,05,03,32,15.80
2014,10,05,03,33,15.80
2014,10,05,03,34,15.80
2014,10,05,03,35,15.80
2014,10,05,03,36,15.80
2014,10,05,03,37,15.80
2014,10,05,03,38,15.80
2014,10,05,03,39,15.80
2014,10,05,03,40,15.80
2014,10,05,03,41,15.70
2014,10,05,03,42,15.70
2014,10,05,03,43,15.70
2014,10,05,03,44,15.70
2014,10,05,03,45,15.70
2014,10,05,03,46,15.70
2014,10,05,03,47,15.70
2014,10,05,03,48,15.70
2014,10,05,03,49,15.60
2014,10,05,03,50,15.60
2014,10,05,03,51,15.60
2014,10,05,03,52,15.60
2014,10,05,03,53,15.60
2014,10,05,03,54,15.60
2014,10,05,03,55,15.60
2014,10,05,03,56,15.50
2014,10,05,03,57,15.50
2014,10,05,03,58,15.50
2014,10,05,03,59,15.50
2014,10,05,04,00,15.40
2014,10,05,04,01,15.40
2014,10,05,04,02,15.40
2014,10,05,04,03,15.40
2014,10,05,04,04,15.40
2014,10,05,04,05,15.40
2014,10,05,04,06,15.40
2014,10,05,04,07,15.40
2014,10,05,04,08,15.40
2014,10,05,04,09,15.40
2014,10,05,04,10,15.40
2014,10,05,04,11,15.30
2014,10,05,04,12,15.30
2014,10,05,04,13,15.30
2014,10,05,04,14,15.30
2014,10,05,04,15,15.30
2014,10,05,04,16,15.30
2014,10,05,04,17,15.30
2014,10,05,04,18,15.30
2014,10,05,04,19,15.20
2014,10,05,04,20,15.20
2014,10,05,04,21,15.20
2014,10,05,04,22,15.20
2014,10,05,04,23,15.20
2014,10,05,04,24,15.10
2014,10,05,04,25,15.10
2014,10,05,04,26,15.10
2014,10,05,04,27,15.10
2014,10,05,04,28,15.10
2014,10,05,04,29,15.10
2014,10,05,04,30,15.10
2014,10,05,04,31,15.10
2014,10,05,04,32,15.10
2014,10,05,04,33,15.00
2014,10,05,04,34,15.00
2014,10,05,04,35,15.00
2014,10,05,04,36,15.00
2014,10,05,04,37,15.00
2014,10,05,04,38,15.00
2014,10,05,04,39,15.00
2014,10,05,04,40,15.00
2014,10,05,04,41,15.00
2014,10,05,04,42,15.00
2014,10,05,04,43,15.10
2014,10,05,04,44,15.10
2014,10,05,04,45,15.10
2014,10,05,04,46,15.10
2014,10,05,04,47,15.10
2014,10,05,04,48,15.10
2014,10,05,04,49,15.20
2014,10,05,04,50,15.20
2014,10,05,04,51,15.20
2014,10,05,04,52,15.20
2014,10,05,04,53,15.20
2014,10,05,04,54,15.20
2014,10,05,04,55,15.20
2014,10,05,04,56,15.20
2014,10,05,04,57,15.30
2014,10,05,04,58,15.30
2014,10,05,04,59,15.30
2014,10,05,05,00,15.30
2014,10,05,05,01,15.30
2014,10,05,05,02,15.30
2014,10,05,05,03,15.30
2014,10,05,05,04,15.30
2014,10,05,05,05,15.30
2014,10,05,05,06,15.30
2014,10,05,05,07,15.30
2014,10,05,05,08,15.30
2014,10,05,05,09,15.30
2014,10,05,05,10,15.40
2014,10,05,05,11,15.40
2014,10,05,05,12,15.40
2014,10,05,05,13,15.40
2014,10,05,05,14,15.40
2014,10,05,05,15,15.40
2014,10,05,05,16,15.40
2014,10,05,05,17,15.30
2014,10,05,05,18,15.30
2014,10,05,05,19,15.30
2014,10,05,05,20,15.30
2014,10,05,05,21,15.30
2014,10,05,05,22,15.20
2014,10,05,05,23,15.20
2014,10,05,05,24,15.20
2014,10,05,05,25,15.20
2014,10,05,05,26,15.10
2014,10,05,05,27,15.10
2014,10,05,05,28,15.10
2014,10,05,05,29,15.10
2014,10,05,05,30,15.10
2014,10,05,05,31,15.00
2014,10,05,05,32,15.00
2014,10,05,05,33,15.00
2014,10,05,05,34,15.00
2014,10,05,05,35,15.00
2014,10,05,05,36,14.90
2014,10,05,05,37,14.90
2014,10,05,05,38,14.90
2014,10,05,05,39,14.90
2014,10,05,05,40,14.90
2014,10,05,05,41,14.80
2014,10,05,05,42,14.80
2014,10,05,05,43,14.80
2014,10,05,05,44,14.80
2014,10,05,05,45,14.80
2014,10,05,05,46,14.80
2014,10,05,05,47,14.80
2014,10,05,05,48,14.80
2014,10,05,05,49,14.80
2014,10,05,05,50,14.80
2014,10,05,05,51,14.80
2014,10,05,05,52,14.70
2014,10,05,05,53,14.70
2014,10,05,05,54,14.70
2014,10,05,05,55,14.70
2014,10,05,05,56,14.70
2014,10,05,05,57,14.70
2014,10,05,05,58,14.70
2014,10,05,05,59,14.70
2014,10,05,06,00,14.70
2014,10,05,06,01,14.70
2014,10,05,06,02,14.70
2014,10,05,06,03,14.70
2014,10,05,06,04,14.70
2014,10,05,06,05,14.70
2014,10,05,06,06,14.60
2014,10,05,06,07,14.60
2014,10,05,06,08,14.60
2014,10,05,06,09,14.60
2014,10,05,06,10,14.60
2014,10,05,06,11,14.60
2014,10,05,06,12,14.60
2014,10,05,06,13,14.60
2014,10,05,06,14,14.60
2014,10,05,06,15,14.60
2014,10,05,06,16,14.60
2014,10,05,06,17,14.60
2014,10,05,06,18,14.60
2014,10,05,06,19,14.60
2014,10,05,06,20,14.60
2014,10,05,06,21,14.50
2014,10,05,06,22,14.50
2014,10,05,06,23,14.40
2014,10,05,06,24,14.40
2014,10,05,06,25,14.40
2014,10,05,06,26,14.40
2014,10,05,06,27,14.40
2014,10,05,06,28,14.40
2014,10,05,06,29,14.40
2014,10,05,06,30,14.40
2014,10,05,06,31,14.30
2014,10,05,06,32,14.30
2014,10,05,06,33,14.30
2014,10,05,06,34,14.30
2014,10,05,06,35,14.30
2014,10,05,06,36,14.30
2014,10,05,06,37,14.30
2014,10,05,06,38,14.30
2014,10,05,06,39,14.30
2014,10,05,06,40,14.30
2014,10,05,06,41,14.30
2014,10,05,06,42,14.30
2014,10,05,06,43,14.30
2014,10,05,06,44,14.30
2014,10,05,06,45,14.20
2014,10,05,06,46,14.20
2014,10,05,06,47,14.20
2014,10,05,06,48,14.20
2014,10,05,06,49,14.20
2014,10,05,06,50,14.20
2014,10,05,06,51,14.20
2014,10,05,06,52,14.20
2014,10,05,06,53,14.20
2014,10,05,06,54,14.20
2014,10,05,06,55,14.20
2014,10,05,06,56,14.20
2014,10,05,06,57,14.20
2014,10,05,06,58,14.20
2014,10,05,06,59,14.20
2014,10,05,07,00,14.20
2014,10,05,07,01,14.20
2014,10,05,07,02,14.20
2014,10,05,07,03,14.20
2014,10,05,07,04,14.20
2014,10,05,07,05,14.20
2014,10,05,07,06,14.20
2014,10,05,07,07,14.20
2014,10,05,07,08,14.20
2014,10,05,07,09,14.20
2014,10,05,07,10,14.20
2014,10,05,07,11,14.20
2014,10,05,07,12,14.20
2014,10,05,07,13,14.20
2014,10,05,07,14,14.20
2014,10,05,07,15,14.20
2014,10,05,07,16,14.10
2014,10,05,07,17,14.10
2014,10,05,07,18,14.10
2014,10,05,07,19,14.10
2014,10,05,07,20,14.10
2014,10,05,07,21,14.10
2014,10,05,07,22,14.10
2014,10,05,07,23,14.10
2014,10,05,07,24,14.10
2014,10,05,07,25,14.10
2014,10,05,07,26,14.10
2014,10,05,07,27,14.10
2014,10,05,07,28,14.10
2014,10,05,07,29,14.10
2014,10,05,07,30,14.10
2014,10,05,07,31,14.10
2014,10,05,07,32,14.10
2014,10,05,07,33,14.10
2014,10,05,07,34,14.10
2014,10,05,07,35,14.10
2014,10,05,07,36,14.10
2014,10,05,07,37,14.10
2014,10,05,07,38,14.10
2014,10,05,07,39,14.10
2014,10,05,07,40,14.10
2014,10,05,07,41,14.10
2014,10,05,07,42,14.10
2014,10,05,07,43,14.10
2014,10,05,07,44,14.10
2014,10,05,07,45,14.10
2014,10,05,07,46,14.20
2014,10,05,07,47,14.20
2014,10,05,07,48,14.20
2014,10,05,07,49,14.20
2014,10,05,07,50,14.20
2014,10,05,07,51,14.20
2014,10,05,07,52,14.20
2014,10,05,07,53,14.20
2014,10,05,07,54,14.20
2014,10,05,07,55,14.20
2014,10,05,07,56,14.20
2014,10,05,07,57,14.20
2014,10,05,07,58,14.20
2014,10,05,07,59,14.30
2014,10,05,08,00,14.30
2014,10,05,08,01,14.30
2014,10,05,08,02,14.30
2014,10,05,08,03,14.30
2014,10,05,08,04,14.30
2014,10,05,08,05,14.30
2014,10,05,08,06,14.30
2014,10,05,08,07,14.30
2014,10,05,08,08,14.30
2014,10,05,08,09,14.40
2014,10,05,08,10,14.40
2014,10,05,08,11,14.40
2014,10,05,08,12,14.40
2014,10,05,08,13,14.50
2014,10,05,08,14,14.50
2014,10,05,08,15,14.50
2014,10,05,08,16,14.50
2014,10,05,08,17,14.60
2014,10,05,08,18,14.60
2014,10,05,08,19,14.60
2014,10,05,08,20,14.60
2014,10,05,08,21,14.60
2014,10,05,08,22,14.70
2014,10,05,08,23,14.70
2014,10,05,08,24,14.70
2014,10,05,08,25,14.70
2014,10,05,08,26,14.70
2014,10,05,08,27,14.60
2014,10,05,08,28,14.60
2014,10,05,08,29,14.60
2014,10,05,08,30,14.60
2014,10,05,08,31,14.60
2014,10,05,08,32,14.60
2014,10,05,08,33,14.60
2014,10,05,08,34,14.60
2014,10,05,08,35,14.70
2014,10,05,08,36,14.70
2014,10,05,08,37,14.70
2014,10,05,08,38,14.70
2014,10,05,08,39,14.70
2014,10,05,08,40,14.70
2014,10,05,08,41,14.70
2014,10,05,08,42,14.70
2014,10,05,08,43,14.70
2014,10,05,08,44,14.70
2014,10,05,08,45,14.70
2014,10,05,08,46,14.70
2014,10,05,08,47,14.70
2014,10,05,08,48,14.70
2014,10,05,08,49,14.80
2014,10,05,08,50,14.80
2014,10,05,08,51,14.80
2014,10,05,08,52,14.80
2014,10,05,08,53,14.80
2014,10,05,08,54,14.80
2014,10,05,08,55,14.80
2014,10,05,08,56,14.90
2014,10,05,08,57,14.90
2014,10,05,08,58,14.90
2014,10,05,08,59,14.90
2014,10,05,09,00,14.90
2014,10,05,09,01,14.90
2014,10,05,09,02,15.00
2014,10,05,09,03,15.00
2014,10,05,09,04,15.00
2014,10,05,09,05,15.10
2014,10,05,09,06,15.10
2014,10,05,09,07,15.10
2014,10,05,09,08,15.10
2014,10,05,09,09,15.20
2014,10,05,09,10,15.20
2014,10,05,09,11,15.20
2014,10,05,09,12,15.20
2014,10,05,09,13,15.30
2014,10,05,09,14,15.30
2014,10,05,09,15,15.30
2014,10,05,09,16,15.40
2014,10,05,09,17,15.40
2014,10,05,09,18,15.40
2014,10,05,09,19,15.50
2014,10,05,09,20,15.50
2014,10,05,09,21,15.60
2014,10,05,09,22,15.60
2014,10,05,09,23,15.60
2014,10,05,09,24,15.60
2014,10,05,09,25,15.70
2014,10,05,09,26,15.70
2014,10,05,09,27,15.70
2014,10,05,09,28,15.80
2014,10,05,09,29,15.80
2014,10,05,09,30,15.80
2014,10,05,09,31,15.80
2014,10,05,09,32,15.90
2014,10,05,09,33,15.90
2014,10,05,09,34,15.90
2014,10,05,09,35,15.90
2014,10,05,09,36,16.00
2014,10,05,09,37,16.00
2014,10,05,09,38,16.10
2014,10,05,09,39,16.10
2014,10,05,09,40,16.10
2014,10,05,09,41,16.20
2014,10,05,09,42,16.20
2014,10,05,09,43,16.20
2014,10,05,09,44,16.30
2014,10,05,09,45,16.30
2014,10,05,09,46,16.30
2014,10,05,09,47,16.30
2014,10,05,09,48,16.40
2014,10,05,09,49,16.40
2014,10,05,09,50,16.40
2014,10,05,09,51,16.50
2014,10,05,09,52,16.50
2014,10,05,09,53,16.60
2014,10,05,09,54,16.60
2014,10,05,09,55,16.60
2014,10,05,09,56,16.70
2014,10,05,09,57,16.70
2014,10,05,09,58,16.80
2014,10,05,09,59,16.80
2014,10,05,10,00,16.80
2014,10,05,10,01,16.90
2014,10,05,10,02,16.90
2014,10,05,10,03,17.00
2014,10,05,10,04,17.00
2014,10,05,10,05,17.10
2014,10,05,10,06,17.10
2014,10,05,10,07,17.20
2014,10,05,10,08,17.20
2014,10,05,10,09,17.30
2014,10,05,10,10,17.30
2014,10,05,10,11,17.30
2014,10,05,10,12,17.40
2014,10,05,10,13,17.40
2014,10,05,10,14,17.50
2014,10,05,10,15,17.60
2014,10,05,10,16,17.60
2014,10,05,10,17,17.70
2014,10,05,10,18,17.70
2014,10,05,10,19,17.80
2014,10,05,10,20,17.80
2014,10,05,10,21,17.80
2014,10,05,10,22,17.90
2014,10,05,10,23,18.00
2014,10,05,10,24,18.00
2014,10,05,10,25,18.00
2014,10,05,10,26,18.10
2014,10,05,10,27,18.10
2014,10,05,10,28,18.20
2014,10,05,10,29,18.20
2014,10,05,10,30,18.20
2014,10,05,10,31,18.20
2014,10,05,10,32,18.20
2014,10,05,10,33,18.30
2014,10,05,10,34,18.30
2014,10,05,10,35,18.20
2014,10,05,10,36,18.20
2014,10,05,10,37,18.20
2014,10,05,10,38,18.20
2014,10,05,10,39,18.20
2014,10,05,10,40,18.20
2014,10,05,10,41,18.10
2014,10,05,10,42,18.10
2014,10,05,10,43,18.10
2014,10,05,10,44,18.00
2014,10,05,10,45,18.00
2014,10,05,10,46,17.90
2014,10,05,10,47,17.90
2014,10,05,10,48,17.90
2014,10,05,10,49,17.90
2014,10,05,10,50,17.90
2014,10,05,10,51,17.90
2014,10,05,10,52,17.90
2014,10,05,10,53,18.00
2014,10,05,10,54,18.00
2014,10,05,10,55,18.00
2014,10,05,10,56,18.10
2014,10,05,10,57,18.10
2014,10,05,10,58,18.10
2014,10,05,10,59,18.20
2014,10,05,11,00,18.20
2014,10,05,11,01,18.20
2014,10,05,11,02,18.30
2014,10,05,11,03,18.30
2014,10,05,11,04,18.30
2014,10,05,11,05,18.30
2014,10,05,11,06,18.40
2014,10,05,11,07,18.40
2014,10,05,11,08,18.50
2014,10,05,11,09,18.50
2014,10,05,11,10,18.60
2014,10,05,11,11,18.60
2014,10,05,11,12,18.60
2014,10,05,11,13,18.60
2014,10,05,11,14,18.60
2014,10,05,11,15,18.60
2014,10,05,11,16,18.60
2014,10,05,11,17,18.70
2014,10,05,11,18,18.70
2014,10,05,11,19,18.70
2014,10,05,11,20,18.70
2014,10,05,11,21,18.70
2014,10,05,11,22,18.80
2014,10,05,11,23,18.80
2014,10,05,11,24,18.90
2014,10,05,11,25,18.90
2014,10,05,11,26,19.00
2014,10,05,11,27,19.00
2014,10,05,11,28,19.10
2014,10,05,11,29,19.10
2014,10,05,11,30,19.10
2014,10,05,11,31,19.00
2014,10,05,11,32,19.00
2014,10,05,11,33,19.00
2014,10,05,11,34,19.00
2014,10,05,11,35,19.00
2014,10,05,11,36,19.10
2014,10,05,11,37,19.10
2014,10,05,11,38,19.10
2014,10,05,11,39,19.10
2014,10,05,11,40,19.20
2014,10,05,11,41,19.20
2014,10,05,11,42,19.20
2014,10,05,11,43,19.20
2014,10,05,11,44,19.20
2014,10,05,11,45,19.30
2014,10,05,11,46,19.30
2014,10,05,11,47,19.30
2014,10,05,11,48,19.30
2014,10,05,11,49,19.40
2014,10,05,11,50,19.40
2014,10,05,11,51,19.40
2014,10,05,11,52,19.40
2014,10,05,11,53,19.40
2014,10,05,11,54,19.50
2014,10,05,11,55,19.50
2014,10,05,11,56,19.50
2014,10,05,11,57,19.50
2014,10,05,11,58,19.60
2014,10,05,11,59,19.60
2014,10,05,12,00,19.70
2014,10,05,12,01,19.70
2014,10,05,12,02,19.70
2014,10,05,12,03,19.70
2014,10,05,12,04,19.70
2014,10,05,12,05,19.70
2014,10,05,12,06,19.80
2014,10,05,12,07,19.70
2014,10,05,12,08,19.70
2014,10,05,12,09,19.70
2014,10,05,12,10,19.80
2014,10,05,12,11,19.80
2014,10,05,12,12,19.80
2014,10,05,12,13,19.80
2014,10,05,12,14,19.80
2014,10,05,12,15,19.80
2014,10,05,12,16,19.80
2014,10,05,12,17,19.80
2014,10,05,12,18,19.80
2014,10,05,12,19,19.80
2014,10,05,12,20,19.90
2014,10,05,12,21,19.90
2014,10,05,12,22,19.90
2014,10,05,12,23,20.00
2014,10,05,12,24,20.00
2014,10,05,12,25,20.10
2014,10,05,12,26,20.10
2014,10,05,12,27,20.10
2014,10,05,12,28,20.10
2014,10,05,12,29,20.10
2014,10,05,12,30,20.10
2014,10,05,12,31,20.10
2014,10,05,12,32,20.10
2014,10,05,12,33,20.10
2014,10,05,12,34,20.20
2014,10,05,12,35,20.20
2014,10,05,12,36,20.20
2014,10,05,12,37,20.30
2014,10,05,12,38,20.30
2014,10,05,12,39,20.40
2014,10,05,12,40,20.40
2014,10,05,12,41,20.40
2014,10,05,12,42,20.40
2014,10,05,12,43,20.40
2014,10,05,12,44,20.50
2014,10,05,12,45,20.50
2014,10,05,12,46,20.50
2014,10,05,12,47,20.50
2014,10,05,12,48,20.50
2014,10,05,12,49,20.50
2014,10,05,12,50,20.60
2014,10,05,12,51,20.60
2014,10,05,12,52,20.60
2014,10,05,12,53,20.60
2014,10,05,12,54,20.70
2014,10,05,12,55,20.70
2014,10,05,12,56,20.80
2014,10,05,12,57,20.80
2014,10,05,12,58,20.80
2014,10,05,12,59,20.80
2014,10,05,13,00,20.70
2014,10,05,13,01,20.70
2014,10,05,13,02,20.60
2014,10,05,13,03,20.60
2014,10,05,13,04,20.60
2014,10,05,13,05,20.60
2014,10,05,13,06,20.60
2014,10,05,13,07,20.60
2014,10,05,13,08,20.60
2014,10,05,13,09,20.60
2014,10,05,13,10,20.60
2014,10,05,13,11,20.60
2014,10,05,13,12,20.60
2014,10,05,13,13,20.70
2014,10,05,13,14,20.70
2014,10,05,13,15,20.80
2014,10,05,13,16,20.80
2014,10,05,13,17,20.90
2014,10,05,13,18,20.90
2014,10,05,13,19,21.00
2014,10,05,13,20,21.00
2014,10,05,13,21,21.10
2014,10,05,13,22,21.20
2014,10,05,13,23,21.30
2014,10,05,13,24,21.40
2014,10,05,13,25,21.50
2014,10,05,13,26,21.50
2014,10,05,13,27,21.60
2014,10,05,13,28,21.60
2014,10,05,13,29,21.60
2014,10,05,13,30,21.50
2014,10,05,13,31,21.50
2014,10,05,13,32,21.40
2014,10,05,13,33,21.40
2014,10,05,13,34,21.30
2014,10,05,13,35,21.30
2014,10,05,13,36,21.30
2014,10,05,13,37,21.30
2014,10,05,13,38,21.20
2014,10,05,13,39,21.20
2014,10,05,13,40,21.30
2014,10,05,13,41,21.30
2014,10,05,13,42,21.30
2014,10,05,13,43,21.30
2014,10,05,13,44,21.30
2014,10,05,13,45,21.30
2014,10,05,13,46,21.20
2014,10,05,13,47,21.20
2014,10,05,13,48,21.20
2014,10,05,13,49,21.20
2014,10,05,13,50,21.20
2014,10,05,13,51,21.30
2014,10,05,13,52,21.30
2014,10,05,13,53,21.40
2014,10,05,13,54,21.50
2014,10,05,13,55,21.60
2014,10,05,13,56,21.60
2014,10,05,13,57,21.70
2014,10,05,13,58,21.70
2014,10,05,13,59,21.70
2014,10,05,14,00,21.70
2014,10,05,14,01,21.80
2014,10,05,14,02,21.80
2014,10,05,14,03,21.80
2014,10,05,14,04,21.80
2014,10,05,14,05,21.90
2014,10,05,14,06,21.90
2014,10,05,14,07,22.00
2014,10,05,14,08,22.00
2014,10,05,14,09,22.00
2014,10,05,14,10,22.00
2014,10,05,14,11,22.00
2014,10,05,14,12,21.90
2014,10,05,14,13,21.90
2014,10,05,14,14,21.90
2014,10,05,14,15,22.00
2014,10,05,14,16,22.00
2014,10,05,14,17,22.00
2014,10,05,14,18,22.10
2014,10,05,14,19,22.10
2014,10,05,14,20,22.10
2014,10,05,14,21,22.10
2014,10,05,14,22,22.10
2014,10,05,14,23,22.10
2014,10,05,14,24,22.00
2014,10,05,14,25,21.90
2014,10,05,14,26,21.90
2014,10,05,14,27,21.70
2014,10,05,14,28,21.60
2014,10,05,14,29,21.40
2014,10,05,14,30,21.30
2014,10,05,14,31,21.10
2014,10,05,14,32,21.10
2014,10,05,14,33,21.00
2014,10,05,14,34,20.80
2014,10,05,14,35,20.70
2014,10,05,14,36,20.60
2014,10,05,14,37,20.60
2014,10,05,14,38,20.50
2014,10,05,14,39,20.40
2014,10,05,14,40,20.30
2014,10,05,14,41,20.10
2014,10,05,14,42,20.00
2014,10,05,14,43,20.00
2014,10,05,14,44,19.90
2014,10,05,14,45,19.80
2014,10,05,14,46,19.70
2014,10,05,14,47,19.60
2014,10,05,14,48,19.60
2014,10,05,14,49,19.60
2014,10,05,14,50,19.60
2014,10,05,14,51,19.60
2014,10,05,14,52,19.60
2014,10,05,14,53,19.60
2014,10,05,14,54,19.60
2014,10,05,14,55,19.50
2014,10,05,14,56,19.50
2014,10,05,14,57,19.50
2014,10,05,14,58,19.50
2014,10,05,14,59,19.50
2014,10,05,15,00,19.60
2014,10,05,15,01,19.60
2014,10,05,15,02,19.70
2014,10,05,15,03,19.70
2014,10,05,15,04,19.80
2014,10,05,15,05,19.80
2014,10,05,15,06,19.80
2014,10,05,15,07,19.90
2014,10,05,15,08,19.80
2014,10,05,15,09,19.80
2014,10,05,15,10,19.80
2014,10,05,15,11,19.90
2014,10,05,15,12,20.00
2014,10,05,15,13,20.00
2014,10,05,15,14,20.10
2014,10,05,15,15,20.10
2014,10,05,15,16,20.20
2014,10,05,15,17,20.20
2014,10,05,15,18,20.20
2014,10,05,15,19,20.20
2014,10,05,15,20,20.20
2014,10,05,15,21,20.20
2014,10,05,15,22,20.20
2014,10,05,15,23,20.20
2014,10,05,15,24,20.20
2014,10,05,15,25,20.20
2014,10,05,15,26,20.20
2014,10,05,15,27,20.20
2014,10,05,15,28,20.20
2014,10,05,15,29,20.10
2014,10,05,15,30,19.90
2014,10,05,15,31,19.80
2014,10,05,15,32,19.70
2014,10,05,15,33,19.70
2014,10,05,15,34,19.70
2014,10,05,15,35,19.70
2014,10,05,15,36,19.70
2014,10,05,15,37,19.70
2014,10,05,15,38,19.60
2014,10,05,15,39,19.60
2014,10,05,15,40,19.60
2014,10,05,15,41,19.70
2014,10,05,15,42,19.70
2014,10,05,15,43,19.70
2014,10,05,15,44,19.70
2014,10,05,15,45,19.60
2014,10,05,15,46,19.60
2014,10,05,15,47,19.60
2014,10,05,15,48,19.60
2014,10,05,15,49,19.60
2014,10,05,15,50,19.60
2014,10,05,15,51,19.40
2014,10,05,15,52,19.30
2014,10,05,15,53,19.20
2014,10,05,15,54,19.20
2014,10,05,15,55,19.20
2014,10,05,15,56,19.10
2014,10,05,15,57,19.10
2014,10,05,15,58,19.00
2014,10,05,15,59,19.00
2014,10,05,16,00,18.90
2014,10,05,16,01,18.90
2014,10,05,16,02,18.80
2014,10,05,16,03,18.80
2014,10,05,16,04,18.80
2014,10,05,16,05,18.80
2014,10,05,16,06,18.70
2014,10,05,16,07,18.80
2014,10,05,16,08,18.80
2014,10,05,16,09,18.80
2014,10,05,16,10,18.80
2014,10,05,16,11,18.80
2014,10,05,16,12,18.80
2014,10,05,16,13,18.80
2014,10,05,16,14,18.90
2014,10,05,16,15,18.90
2014,10,05,16,16,18.90
2014,10,05,16,17,18.90
2014,10,05,16,18,18.80
2014,10,05,16,19,18.70
2014,10,05,16,20,18.60
2014,10,05,16,21,18.60
2014,10,05,16,22,18.60
2014,10,05,16,23,18.60
2014,10,05,16,24,18.60
2014,10,05,16,25,18.60
2014,10,05,16,26,18.60
2014,10,05,16,27,18.60
2014,10,05,16,28,18.60
2014,10,05,16,29,18.60
2014,10,05,16,30,18.50
2014,10,05,16,31,18.50
2014,10,05,16,32,18.40
2014,10,05,16,33,18.40
2014,10,05,16,34,18.40
2014,10,05,16,35,18.40
2014,10,05,16,36,18.40
2014,10,05,16,37,18.40
2014,10,05,16,38,18.40
2014,10,05,16,39,18.50
2014,10,05,16,40,18.50
2014,10,05,16,41,18.50
2014,10,05,16,42,18.50
2014,10,05,16,43,18.50
2014,10,05,16,44,18.60
2014,10,05,16,45,18.60
2014,10,05,16,46,18.60
2014,10,05,16,47,18.70
2014,10,05,16,48,18.70
2014,10,05,16,49,18.70
2014,10,05,16,50,18.70
2014,10,05,16,51,18.80
2014,10,05,16,52,18.70
2014,10,05,16,53,18.70
2014,10,05,16,54,18.70
2014,10,05,16,55,18.70
2014,10,05,16,56,18.60
2014,10,05,16,57,18.60
2014,10,05,16,58,18.60
2014,10,05,16,59,18.70
2014,10,05,17,00,18.70
2014,10,05,17,01,18.70
2014,10,05,17,02,18.80
2014,10,05,17,03,18.80
2014,10,05,17,04,18.80
2014,10,05,17,05,18.90
2014,10,05,17,06,18.90
2014,10,05,17,07,18.90
2014,10,05,17,08,18.90
2014,10,05,17,09,18.90
2014,10,05,17,10,18.90
2014,10,05,17,11,19.00
2014,10,05,17,12,19.00
2014,10,05,17,13,19.00
2014,10,05,17,14,19.10
2014,10,05,17,15,19.00
2014,10,05,17,16,19.00
2014,10,05,17,17,19.00
2014,10,05,17,18,19.00
2014,10,05,17,19,19.00